Flag for Germany Weather past 2 weeks in Bonn, North Rhine-Westphalia, Germany

Now
54 °F

Passing clouds.


Feels Like: 54 °F
Forecast: 44 / 66 °F
Wind: 5 mph from Southeast

Location: Bonn-Hangelar


UV Index: 0 (Low)

Visibility: 22 mi


Pressure: 29.70 "Hg

Humidity: 63%

Dew point: 42 °F

Location of BonnLocation

Historic Weather in Bonn

°F

Bonn temperature yesterday

Maximum temperature yesterday: 59 °F (at 7:00 PM)
Minimum temperature yesterday: 40 °F (at 5:00 AM)
Average temperature yesterday: 48 °F

Past Weeks' High & Low Weather Summary

 TemperatureHumidityPressure
High67 °F (Apr 7, 5:00 PM)99% (Apr 12, 9:00 AM)30.44 "Hg (Apr 12, 9:00 AM)
Low32 °F (Apr 16, 6:00 AM)29% (Apr 17, 4:00 PM)29.65 "Hg (Apr 20, 5:00 PM)
Average50 °F73%30.10 "Hg
* Reported Apr 5 10:00 PM — Apr 20 10:00 PM, Bonn, Weather by CustomWeather, © 2014

Note: Actual official high and low records may vary slightly from our data, if they occured in-between our weather recording intervals... More about our weather records

Advertising

Historic Weather Conditions — Data for Previous 24 hours

 ConditionsComfort  
Time TempWeatherWind HumidityBarometerVisibility
10:00 PM
Apr 20
54 °FOvercast.5 mph68%29.70 "Hg22 mi
9:00 PM57 °FOvercast.3 mph61%29.68 "Hg25 mi
8:00 PM60 °FOvercast.3 mph58%29.67 "Hg25 mi
7:00 PM63 °FOvercast.3 mph48%29.65 "Hg25 mi
6:00 PM64 °FOvercast.6 mph48%29.65 "Hg22 mi
5:00 PM64 °FOvercast.6 mph47%29.65 "Hg22 mi
4:00 PM64 °FPartly sunny.6 mph51%29.66 "Hg19 mi
3:00 PM64 °FPartly sunny.8 mph50%29.67 "Hg19 mi
2:00 PM65 °FPartly sunny.9 mph51%29.68 "Hg19 mi
1:00 PM63 °FScattered clouds.9 mph53%29.69 "Hg16 mi
12:00 PM62 °FPassing clouds.12 mph60%29.70 "Hg12 mi
11:00 AM60 °FPassing clouds.7 mph72%29.71 "Hg7 mi
10:00 AM56 °FPassing clouds.6 mph79%29.74 "Hg6 mi
9:00 AM52 °FFog.5 mph89%29.75 "Hg4 mi
8:00 AM48 °FFog.3 mph96%29.78 "Hg2 mi
7:00 AM46 °FFog.3 mph97%29.78 "Hg2 mi
6:00 AM44 °FFog.3 mph96%29.80 "Hg2 mi
5:00 AM46 °FClear.3 mph94%29.80 "Hg5 mi
4:00 AM46 °FPassing clouds.3 mph93%29.82 "Hg6 mi
3:00 AM48 °FClear.5 mph91%29.83 "Hg6 mi
2:00 AM50 °FPassing clouds.5 mph85%29.85 "Hg7 mi
1:00 AM51 °FClear.6 mph82%29.86 "Hg7 mi
12:00 AM52 °FClear.9 mph77%29.86 "Hg9 mi
11:00 PM
Apr 19
53 °FPassing clouds.9 mph74%29.87 "Hg11 mi
Weather by CustomWeather, © 2014

See weather overview